This is the latest recevied weather packets stored in our database for station/object SP3ZBZ-13. If no packets are shown the sender has not sent any weather packets the latest 10 day(s).
| Time | Temp. | Humidity | Pressure | Rain* | Wind** | Luminosity | Snow |
|---|---|---|---|---|---|---|---|
| 1777555581 | 15.56° C | 41% | 1024.6 hPa | - | - | 324 W/m² | - |
| 1777554680 | 15.56° C | 42% | 1024.8 hPa | - | - | 361 W/m² | - |
| 1777553779 | 15.56° C | 42% | 1024.9 hPa | - | - | 245 W/m² | - |
| 1777552878 | 15° C | 42% | 1025.1 hPa | - | - | 310 W/m² | - |
| 1777551977 | 15° C | 42% | 1025.3 hPa | - | - | 246 W/m² | - |
| 1777551076 | 14.44° C | 42% | 1025.4 hPa | - | - | 268 W/m² | - |
| 1777550175 | 14.44° C | 42% | 1025.4 hPa | - | - | 204 W/m² | - |
| 1777549274 | 13.89° C | 43% | 1025.5 hPa | - | - | 226 W/m² | - |
| 1777548373 | 13.89° C | 41% | 1025.6 hPa | - | - | 190 W/m² | - |
| 1777547472 | 13.33° C | 40% | 1025.6 hPa | - | - | 219 W/m² | - |
| 1777546571 | 13.33° C | 42% | 1025.8 hPa | - | - | 312 W/m² | - |
| 1777545670 | 12.78° C | 41% | 1025.9 hPa | - | - | 308 W/m² | - |
| 1777544769 | 13.33° C | 40% | 1026 hPa | - | - | 461 W/m² | - |
| 1777543868 | 12.78° C | 41% | 1026.1 hPa | - | - | 503 W/m² | - |
| 1777542967 | 12.22° C | 41% | 1026 hPa | - | - | 489 W/m² | - |
| 1777542067 | 12.22° C | 42% | 1026 hPa | - | - | 395 W/m² | - |
| 1777541165 | 11.67° C | 40% | 1026 hPa | - | - | 400 W/m² | - |
| 1777540264 | 10.56° C | 41% | 1026.2 hPa | - | - | 396 W/m² | - |
| 1777539363 | 10.56° C | 41% | 1026.3 hPa | - | - | 354 W/m² | - |
| 1777538462 | 10° C | 43% | 1026.6 hPa | - | - | 390 W/m² | - |
| 1777537561 | 9.44° C | 41% | 1026.7 hPa | - | - | 260 W/m² | - |
| 1777536659 | 9.44° C | 43% | 1026.8 hPa | - | - | 230 W/m² | - |
| 1777535759 | 8.89° C | 43% | 1026.9 hPa | - | - | 207 W/m² | - |
| 1777534858 | 8.33° C | 47% | 1027 hPa | - | - | 174 W/m² | - |
| 1777533957 | 7.78° C | 49% | 1027 hPa | - | - | 162 W/m² | - |
* Rain since midnight (hover to see other rain measurements)
** Current wind speed in m/s (hover to see current wind gust speed)